This demonstration page uses our WeatherBlox Daily Observations layout. Learn more.

Left ArrowRight Arrow

Hourly Observations for March 3, 2021

Temp ( °F °C ) Dew Point ( °F °C ) Humidity (%) Winds ( mph kmh ) Pressure ( in mb ) Visibility ( mi km ) Precip ( " mm )
12:54 am 00:54 Clear 31 -0.6 22 -5.6 69 69 N N/A 29.95 1014 10 16 N/A
1:54 am 01:54 Clear 28 -2.2 22 -5.6 78 78 N 6 9 29.96 1015 10 16 N/A
2:54 am 02:54 Clear 31 -0.6 24 -4.4 76 76 N 6 9 29.96 1014 10 16 N/A
3:54 am 03:54 Clear 29 -1.7 23 -5 78 78 N 7 11 29.96 1015 10 16 N/A
4:54 am 04:54 Clear 29 -1.7 23 -5 78 78 N 6 9 29.98 1015 10 16 N/A
5:54 am 05:54 Clear 28 -2.2 23 -5 81 81 N N/A 29.99 1016 10 16 N/A
6:54 am 06:54 Clear 25 -3.9 21 -6.1 85 85 N N/A 30.02 1017 10 16 N/A
7:54 am 07:54 Sunny 33 0.6 26 -3.3 75 75 N 3 6 30.05 1018 10 16 N/A
8:54 am 08:54 Sunny 39 3.9 29 -1.7 67 67 N N/A 30.05 1018 10 16 N/A
9:54 am 09:54 Sunny 49 9.4 33 0.6 55 55 N N/A 30.05 1018 10 16 N/A
10:54 am 10:54 Sunny 57 13.9 30 -1.1 36 36 VRB 6 9 30.05 1018 10 16 N/A
11:54 am 11:54 Sunny 61 16.1 30 -1.1 31 31 VRB 6 9 30.04 1017 10 16 N/A
12:54 pm 12:54 Sunny 66 18.9 28 -2.2 24 24 ESE 5 7 30.02 1017 10 16 N/A
1:54 pm 13:54 Sunny 66 18.9 28 -2.2 24 24 N N/A 30.01 1016 10 16 N/A
2:54 pm 14:54 Sunny 68 20 28 -2.2 22 22 ESE 6 9 30.00 1016 10 16 N/A
3:54 pm 15:54 Sunny 69 20.6 29 -1.7 22 22 E 5 7 30.01 1016 10 16 N/A
4:54 pm 16:54 Sunny 67 19.4 30 -1.1 25 25 ENE 8 13 30.01 1016 10 16 N/A
5:54 pm 17:54 Sunny 61 16.1 31 -0.6 32 32 ENE 10 17 30.03 1017 10 16 N/A
6:54 pm 18:54 Clear 53 11.7 30 -1.1 41 41 ENE 7 11 30.06 1018 10 16 N/A
7:54 pm 19:54 Clear 51 10.6 32 undefined 48 48 N N/A 30.07 1018 10 16 N/A
8:54 pm 20:54 Clear 50 10 32 undefined 50 50 N N/A 30.08 1019 10 16 N/A
9:54 pm 21:54 Clear 40 4.4 30 -1.1 68 68 NNE 3 6 30.09 1019 10 16 N/A
10:54 pm 22:54 Clear 36 2.2 28 -2.2 73 73 NNW 3 6 30.09 1019 10 16 N/A
11:54 pm 23:54 Clear 33 0.6 27 -2.8 78 78 N N/A 30.10 1019 10 16 N/A

Powered by AerisWeather